QPF
0.00 0.00 0.01 0.04 0.10 0.21 0.14 0.07 0.07 0.07 0.07 0.04 0.02 0.02 0.02 0.03 0.06 0.11 0.13 0.05 0.02 0.00 0.00 0.00 0.00 0.00 0.00 0.00 0.00 0.01 0.01 0.01 0.01 0.01 0.00 0.00 0.00 0.00 0.00 0.00 0.01 0.01 0.01 0.01 0.01 0.01 0.01 0.02 0.02
0.00 0.00 0.01 0.06 0.14 0.18 0.08 0.05 0.07 0.04 0.03 0.03 0.04 0.03 0.02 0.05 0.04 0.08 0.12 0.08 0.03 0.01 0.00 0.00 0.00 0.00 0.00 0.00 0.00 0.01 0.01 0.01 0.01 0.01 0.01 0.01 0.00 0.00 0.00 0.01 0.01 0.01 0.01 0.01 0.01 0.01 0.02 0.02 0.01
0.00 0.01 0.02 0.07 0.12 0.09 0.06 0.04 0.03 0.03 0.03 0.03 0.05 0.04 0.06 0.10 0.04 0.06 0.12 0.07 0.04 0.01 0.00 0.00 0.00 0.00 0.00 0.00 0.00 0.00 0.01 0.01 0.01 0.01 0.01 0.01 0.01 0.01 0.01 0.01 0.01 0.00 0.00 0.00 0.00 0.00 0.01 0.01 0.01
0.01 0.02 0.04 0.07 0.04 0.02 0.02 0.02 0.02 0.02 0.03 0.05 0.05 0.04 0.08 0.09 0.06 0.09 0.10 0.11 0.05 0.01 0.00 0.00 0.00 0.00 0.00 0.00 0.00 0.00 0.01 0.01 0.01 0.01 0.01 0.01 0.01 0.01 0.01 0.00 0.00 0.00 0.00 0.00 0.00 0.00 0.01 0.01 0.01
0.02 0.03 0.05 0.06 0.01 0.01 0.02 0.02 0.02 0.02 0.01 0.03 0.07 0.11 0.10 0.10 0.07 0.09 0.07 0.11 0.08 0.02 0.00 0.00 0.00 0.00 0.00 0.00 0.00 0.01 0.01 0.01 0.01 0.01 0.01 0.01 0.01 0.00 0.00 0.00 0.00 0.00 0.00 0.00 0.00 0.00 0.01 0.01 0.01
0.03 0.03 0.03 0.03 0.01 0.02 0.01 0.01 0.02 0.01 0.01 0.01 0.06 0.11 0.08 0.09 0.05 0.07 0.07 0.09 0.11 0.04 0.01 0.00 0.00 0.00 0.00 0.00 0.01 0.01 0.01 0.01 0.01 0.01 0.01 0.01 0.01 0.01 0.01 0.00 0.00 0.00 0.00 0.00 0.00 0.00 0.01 0.02 0.02
0.01 0.01 0.01 0.01 0.01 0.01 0.01 0.01 0.00 0.00 0.01 0.03 0.05 0.09 0.10 0.15 0.09 0.08 0.11 0.12 0.19 0.13 0.03 0.00 0.00 0.00 0.00 0.01 0.01 0.01 0.01 0.01 0.01 0.01 0.01 0.01 0.01 0.01 0.01 0.01 0.00 0.00 0.00 0.00 0.00 0.00 0.01 0.01 0.02
0.00 0.00 0.00 0.01 0.01 0.00 0.00 0.01 0.00 0.00 0.01 0.03 0.06 0.08 0.10 0.09 0.06 0.09 0.15 0.16 0.36 0.33 0.09 0.02 0.01 0.00 0.00 0.00 0.01 0.01 0.02 0.02 0.01 0.01 0.01 0.01 0.02 0.02 0.01 0.01 0.01 0.00 0.00 0.00 0.01 0.01 0.01 0.01 0.02
0.00 0.00 0.00 0.00 0.00 0.00 0.00 0.00 0.00 0.00 0.01 0.04 0.09 0.08 0.05 0.05 0.06 0.08 0.17 0.16 0.30 0.33 0.14 0.06 0.03 0.01 0.00 0.00 0.01 0.02 0.02 0.02 0.01 0.01 0.01 0.01 0.01 0.02 0.02 0.01 0.01 0.02 0.01 0.01 0.01 0.01 0.01 0.01 0.01
0.00 0.00 0.00 0.00 0.00 0.00 0.00 0.00 0.00 0.00 0.01 0.03 0.08 0.11 0.09 0.09 0.07 0.09 0.17 0.20 0.34 0.36 0.21 0.11 0.04 0.02 0.01 0.00 0.01 0.01 0.01 0.01 0.02 0.01 0.01 0.01 0.01 0.02 0.03 0.03 0.03 0.02 0.01 0.01 0.01 0.01 0.01 0.01 0.01
0.00 0.00 0.00 0.00 0.00 0.00 0.00 0.00 0.00 0.00 0.01 0.03 0.06 0.11 0.21 0.18 0.13 0.15 0.27 0.30 0.39 0.53 0.36 0.22 0.12 0.05 0.04 0.02 0.01 0.01 0.01 0.01 0.01 0.02 0.02 0.02 0.02 0.02 0.02 0.02 0.02 0.01 0.01 0.01 0.01 0.01 0.01 0.02 0.04
0.00 0.00 0.00 0.00 0.00 0.00 0.01 0.00 0.00 0.00 0.01 0.03 0.03 0.07 0.13 0.18 0.19 0.19 0.22 0.26 0.29 0.45 0.47 0.35 0.27 0.13 0.10 0.06 0.03 0.02 0.01 0.01 0.02 0.02 0.03 0.03 0.04 0.04 0.03 0.03 0.02 0.01 0.01 0.01 0.01 0.01 0.02 0.03 0.04
0.00 0.00 0.00 0.00 0.00 0.01 0.01 0.01 0.00 0.00 0.01 0.02 0.02 0.03 0.05 0.08 0.14 0.21 0.23 0.25 0.27 0.35 0.43 0.43 0.39 0.22 0.18 0.10 0.05 0.04 0.02 0.03 0.02 0.03 0.03 0.03 0.03 0.04 0.03 0.04 0.03 0.02 0.02 0.01 0.01 0.01 0.02 0.03 0.04
0.00 0.00 0.00 0.00 0.01 0.02 0.02 0.01 0.01 0.01 0.03 0.03 0.02 0.02 0.04 0.06 0.09 0.17 0.24 0.25 0.36 0.35 0.36 0.37 0.38 0.26 0.15 0.09 0.07 0.05 0.04 0.03 0.03 0.04 0.03 0.03 0.02 0.02 0.02 0.02 0.01 0.02 0.02 0.01 0.01 0.01 0.01 0.01 0.01
0.00 0.00 0.00 0.01 0.02 0.02 0.02 0.01 0.01 0.01 0.02 0.02 0.02 0.02 0.03 0.06 0.08 0.11 0.16 0.20 0.32 0.42 0.39 0.40 0.33 0.27 0.17 0.11 0.12 0.07 0.05 0.04 0.04 0.06 0.07 0.04 0.03 0.02 0.02 0.02 0.01 0.01 0.01 0.01 0.01 0.01 0.00 0.00 0.00
0.00 0.01 0.02 0.02 0.02 0.04 0.03 0.02 0.02 0.01 0.01 0.02 0.03 0.04 0.06 0.08 0.12 0.12 0.14 0.25 0.32 0.42 0.38 0.29 0.27 0.23 0.16 0.12 0.14 0.11 0.07 0.06 0.04 0.03 0.04 0.04 0.03 0.02 0.02 0.02 0.01 0.01 0.01 0.01 0.02 0.01 0.00 0.00 0.00
0.00 0.01 0.01 0.02 0.03 0.02 0.03 0.03 0.02 0.02 0.02 0.03 0.03 0.04 0.11 0.12 0.10 0.10 0.16 0.28 0.39 0.39 0.36 0.23 0.19 0.18 0.15 0.11 0.12 0.12 0.09 0.07 0.04 0.04 0.04 0.03 0.02 0.02 0.02 0.02 0.02 0.01 0.01 0.01 0.01 0.01 0.01 0.01 0.00
0.00 0.00 0.00 0.01 0.02 0.02 0.02 0.02 0.02 0.02 0.01 0.03 0.04 0.06 0.10 0.10 0.12 0.14 0.18 0.29 0.40 0.44 0.41 0.26 0.18 0.14 0.12 0.10 0.11 0.10 0.09 0.08 0.06 0.05 0.05 0.03 0.03 0.03 0.03 0.02 0.01 0.01 0.01 0.01 0.02 0.01 0.01 0.00 0.00
0.00 0.00 0.01 0.01 0.01 0.01 0.02 0.03 0.04 0.02 0.02 0.03 0.05 0.06 0.08 0.09 0.14 0.18 0.22 0.31 0.39 0.42 0.47 0.45 0.29 0.17 0.12 0.09 0.09 0.08 0.07 0.07 0.06 0.03 0.02 0.02 0.02 0.03 0.04 0.02 0.01 0.00 0.00 0.01 0.02 0.01 0.01 0.01 0.01
0.00 0.00 0.00 0.00 0.01 0.01 0.02 0.03 0.04 0.03 0.03 0.03 0.03 0.05 0.04 0.07 0.14 0.28 0.27 0.27 0.36 0.37 0.36 0.37 0.32 0.22 0.14 0.10 0.07 0.06 0.06 0.06 0.04 0.03 0.01 0.01 0.02 0.04 0.03 0.02 0.01 0.00 0.00 0.01 0.02 0.02 0.02 0.01 0.00
0.00 0.00 0.00 0.00 0.00 0.02 0.02 0.03 0.06 0.07 0.06 0.05 0.04 0.04 0.06 0.08 0.15 0.25 0.34 0.29 0.32 0.36 0.27 0.19 0.23 0.20 0.15 0.12 0.09 0.07 0.07 0.06 0.04 0.03 0.01 0.02 0.03 0.03 0.02 0.01 0.00 0.00 0.00 0.01 0.02 0.02 0.01 0.00 0.00
0.00 0.00 0.00 0.00 0.01 0.02 0.02 0.04 0.07 0.09 0.07 0.04 0.04 0.04 0.06 0.10 0.12 0.12 0.19 0.24 0.26 0.25 0.21 0.15 0.19 0.19 0.11 0.09 0.08 0.06 0.04 0.03 0.03 0.03 0.03 0.04 0.04 0.03 0.02 0.01 0.00 0.00 0.00 0.00 0.01 0.02 0.01 0.00 0.00
0.00 0.00 0.00 0.01 0.02 0.03 0.04 0.04 0.06 0.07 0.07 0.05 0.05 0.04 0.04 0.05 0.06 0.08 0.09 0.14 0.15 0.16 0.16 0.14 0.17 0.17 0.11 0.09 0.08 0.07 0.05 0.03 0.03 0.03 0.02 0.03 0.02 0.02 0.01 0.01 0.00 0.00 0.00 0.00 0.01 0.01 0.01 0.00 0.00
0.00 0.00 0.00 0.02 0.04 0.09 0.06 0.04 0.08 0.07 0.07 0.04 0.06 0.07 0.06 0.05 0.05 0.06 0.08 0.10 0.11 0.11 0.11 0.11 0.14 0.15 0.10 0.08 0.08 0.06 0.06 0.05 0.04 0.03 0.02 0.02 0.01 0.01 0.01 0.01 0.00 0.00 0.00 0.01 0.01 0.01 0.00 0.00 0.00
0.00 0.00 0.01 0.03 0.06 0.10 0.08 0.06 0.08 0.06 0.04 0.03 0.03 0.04 0.04 0.04 0.05 0.05 0.05 0.05 0.04 0.04 0.06 0.07 0.09 0.10 0.09 0.08 0.06 0.05 0.04 0.05 0.05 0.05 0.03 0.02 0.01 0.01 0.00 0.00 0.00 0.00 0.00 0.00 0.01 0.01 0.00 0.00 0.00
0.00 0.01 0.02 0.03 0.04 0.07 0.09 0.12 0.11 0.06 0.03 0.03 0.02 0.04 0.04 0.02 0.02 0.02 0.02 0.03 0.02 0.03 0.04 0.05 0.05 0.06 0.08 0.06 0.04 0.02 0.03 0.03 0.03 0.03 0.02 0.01 0.01 0.01 0.00 0.00 0.00 0.00 0.00 0.00 0.01 0.01 0.00 0.00 0.00
0.01 0.01 0.01 0.02 0.02 0.05 0.09 0.13 0.15 0.05 0.03 0.03 0.02 0.03 0.03 0.02 0.01 0.01 0.02 0.02 0.02 0.02 0.03 0.03 0.03 0.04 0.05 0.03 0.02 0.02 0.01 0.02 0.01 0.01 0.01 0.01 0.01 0.00 0.00 0.00 0.00 0.00 0.00 0.00 0.00 0.00 0.00 0.00 0.00
0.01 0.01 0.02 0.02 0.03 0.06 0.09 0.11 0.16 0.08 0.05 0.04 0.03 0.04 0.04 0.03 0.02 0.02 0.02 0.01 0.01 0.02 0.02 0.02 0.02 0.02 0.02 0.01 0.01 0.01 0.01 0.01 0.01 0.01 0.01 0.00 0.00 0.00 0.02 0.01 0.00 0.00 0.00 0.00 0.00 0.00 0.00 0.00 0.00
0.01 0.02 0.03 0.03 0.03 0.04 0.07 0.07 0.07 0.05 0.05 0.05 0.04 0.04 0.04 0.02 0.02 0.01 0.01 0.01 0.01 0.01 0.02 0.02 0.02 0.02 0.03 0.03 0.02 0.01 0.01 0.01 0.01 0.01 0.00 0.00 0.00 0.01 0.02 0.01 0.01 0.00 0.00 0.00 0.00 0.00 0.00 0.00 0.00
0.02 0.03 0.03 0.03 0.03 0.02 0.03 0.04 0.03 0.04 0.04 0.03 0.04 0.04 0.05 0.03 0.03 0.03 0.02 0.02 0.02 0.01 0.01 0.01 0.01 0.01 0.01 0.02 0.02 0.01 0.01 0.01 0.01 0.01 0.01 0.01 0.01 0.02 0.02 0.01 0.01 0.01 0.00 0.00 0.00 0.00 0.00 0.00 0.00
MSLP
1009.33 1010.22 1011.19 1012.07 1012.72 1013.07 1013.10 1012.87 1012.50 1012.12 1011.83 1011.72 1011.78 1011.97 1012.21 1012.40 1012.47 1012.38 1012.16 1011.88 1011.62 1011.48 1011.50 1011.71 1012.09 1012.56 1013.05 1013.48 1013.80 1014.00 1014.09 1014.13 1014.17 1014.25 1014.40 1014.63 1014.91 1015.21 1015.48 1015.70 1015.85 1015.94 1015.97 1015.98 1015.97 1015.98 1015.99 1016.01 1016.04
1009.81 1010.86 1011.87 1012.67 1013.13 1013.20 1012.92 1012.39 1011.75 1011.18 1010.80 1010.65 1010.74 1011.00 1011.32 1011.60 1011.75 1011.74 1011.59 1011.39 1011.22 1011.16 1011.27 1011.57 1012.01 1012.52 1013.04 1013.47 1013.80 1014.00 1014.10 1014.16 1014.22 1014.34 1014.52 1014.76 1015.04 1015.32 1015.57 1015.77 1015.91 1016.00 1016.05 1016.09 1016.13 1016.17 1016.21 1016.25 1016.28
1010.39 1011.54 1012.53 1013.19 1013.41 1013.20 1012.61 1011.79 1010.94 1010.23 1009.78 1009.65 1009.81 1010.15 1010.57 1010.94 1011.17 1011.23 1011.17 1011.04 1010.94 1010.96 1011.15 1011.50 1011.99 1012.53 1013.05 1013.49 1013.81 1014.02 1014.13 1014.21 1014.30 1014.44 1014.64 1014.88 1015.14 1015.40 1015.62 1015.79 1015.92 1016.02 1016.10 1016.18 1016.27 1016.35 1016.43 1016.49 1016.53
1011.00 1012.17 1013.07 1013.54 1013.52 1013.03 1012.17 1011.15 1010.15 1009.37 1008.93 1008.85 1009.09 1009.53 1010.04 1010.49 1010.79 1010.92 1010.91 1010.85 1010.82 1010.91 1011.15 1011.55 1012.07 1012.62 1013.13 1013.56 1013.87 1014.07 1014.19 1014.29 1014.40 1014.56 1014.76 1015.00 1015.24 1015.47 1015.66 1015.81 1015.93 1016.04 1016.15 1016.28 1016.41 1016.55 1016.66 1016.74 1016.78
1011.57 1012.67 1013.41 1013.67 1013.40 1012.68 1011.64 1010.49 1009.44 1008.68 1008.30 1008.32 1008.66 1009.19 1009.77 1010.27 1010.61 1010.78 1010.81 1010.80 1010.83 1010.98 1011.28 1011.72 1012.25 1012.79 1013.29 1013.68 1013.96 1014.14 1014.26 1014.37 1014.50 1014.67 1014.88 1015.11 1015.34 1015.55 1015.71 1015.85 1015.97 1016.09 1016.23 1016.40 1016.58 1016.75 1016.90 1016.99 1017.04
1012.02 1012.96 1013.49 1013.52 1013.04 1012.14 1011.00 1009.83 1008.83 1008.17 1007.93 1008.07 1008.51 1009.12 1009.74 1010.25 1010.59 1010.77 1010.82 1010.85 1010.93 1011.14 1011.49 1011.96 1012.50 1013.03 1013.49 1013.85 1014.09 1014.24 1014.34 1014.45 1014.59 1014.77 1015.00 1015.24 1015.46 1015.66 1015.81 1015.94 1016.06 1016.19 1016.36 1016.55 1016.76 1016.96 1017.12 1017.23 1017.27
1012.28 1012.99 1013.27 1013.06 1012.40 1011.41 1010.27 1009.17 1008.32 1007.83 1007.76 1008.04 1008.58 1009.23 1009.86 1010.35 1010.66 1010.81 1010.87 1010.92 1011.06 1011.32 1011.72 1012.23 1012.78 1013.30 1013.72 1014.03 1014.22 1014.34 1014.42 1014.52 1014.67 1014.87 1015.12 1015.37 1015.61 1015.81 1015.96 1016.09 1016.21 1016.35 1016.52 1016.73 1016.95 1017.15 1017.31 1017.41 1017.46
1012.32 1012.76 1012.77 1012.35 1011.56 1010.54 1009.46 1008.52 1007.86 1007.60 1007.71 1008.14 1008.76 1009.43 1010.02 1010.45 1010.71 1010.82 1010.87 1010.94 1011.12 1011.45 1011.90 1012.45 1013.01 1013.52 1013.92 1014.19 1014.34 1014.43 1014.49 1014.59 1014.75 1014.97 1015.23 1015.51 1015.77 1015.98 1016.15 1016.28 1016.40 1016.54 1016.71 1016.90 1017.11 1017.31 1017.46 1017.55 1017.58
1012.13 1012.29 1012.06 1011.45 1010.58 1009.58 1008.62 1007.88 1007.45 1007.41 1007.72 1008.27 1008.94 1009.60 1010.13 1010.48 1010.66 1010.72 1010.75 1010.84 1011.06 1011.44 1011.95 1012.55 1013.14 1013.65 1014.04 1014.28 1014.42 1014.48 1014.54 1014.64 1014.81 1015.06 1015.35 1015.66 1015.94 1016.17 1016.35 1016.48 1016.61 1016.73 1016.89 1017.06 1017.25 1017.42 1017.55 1017.63 1017.65
1011.77 1011.68 1011.23 1010.48 1009.57 1008.63 1007.82 1007.28 1007.08 1007.25 1007.71 1008.36 1009.05 1009.67 1010.12 1010.39 1010.48 1010.48 1010.48 1010.58 1010.84 1011.27 1011.83 1012.47 1013.09 1013.63 1014.03 1014.28 1014.42 1014.49 1014.56 1014.68 1014.87 1015.14 1015.46 1015.79 1016.10 1016.35 1016.54 1016.69 1016.80 1016.92 1017.05 1017.20 1017.35 1017.50 1017.61 1017.67 1017.70
1011.33 1011.03 1010.41 1009.57 1008.65 1007.79 1007.13 1006.78 1006.77 1007.11 1007.68 1008.37 1009.05 1009.61 1009.98 1010.15 1010.17 1010.11 1010.09 1010.18 1010.46 1010.92 1011.52 1012.20 1012.86 1013.43 1013.87 1014.16 1014.34 1014.45 1014.56 1014.70 1014.92 1015.22 1015.56 1015.90 1016.23 1016.50 1016.70 1016.85 1016.97 1017.08 1017.19 1017.32 1017.45 1017.57 1017.66 1017.72 1017.75
1010.89 1010.44 1009.71 1008.83 1007.93 1007.16 1006.63 1006.42 1006.56 1006.99 1007.62 1008.31 1008.96 1009.45 1009.74 1009.82 1009.77 1009.66 1009.61 1009.69 1009.96 1010.43 1011.05 1011.75 1012.45 1013.07 1013.57 1013.93 1014.18 1014.36 1014.52 1014.71 1014.96 1015.27 1015.62 1015.97 1016.30 1016.58 1016.80 1016.96 1017.09 1017.20 1017.31 1017.42 1017.54 1017.65 1017.74 1017.81 1017.84
1010.55 1010.01 1009.23 1008.34 1007.49 1006.79 1006.36 1006.26 1006.46 1006.93 1007.56 1008.22 1008.80 1009.22 1009.44 1009.46 1009.36 1009.21 1009.13 1009.18 1009.43 1009.88 1010.48 1011.19 1011.92 1012.59 1013.16 1013.61 1013.96 1014.23 1014.46 1014.71 1014.99 1015.30 1015.64 1015.99 1016.31 1016.59 1016.82 1017.00 1017.15 1017.28 1017.40 1017.53 1017.65 1017.77 1017.87 1017.95 1018.00
1010.36 1009.78 1009.00 1008.14 1007.34 1006.72 1006.36 1006.29 1006.51 1006.96 1007.54 1008.13 1008.64 1009.00 1009.16 1009.16 1009.03 1008.86 1008.75 1008.77 1008.97 1009.36 1009.92 1010.60 1011.34 1012.05 1012.70 1013.26 1013.71 1014.09 1014.40 1014.70 1014.99 1015.30 1015.62 1015.93 1016.23 1016.51 1016.75 1016.96 1017.14 1017.31 1017.48 1017.63 1017.78 1017.92 1018.05 1018.14 1018.22
1010.33 1009.74 1008.98 1008.18 1007.46 1006.90 1006.58 1006.52 1006.70 1007.08 1007.57 1008.08 1008.51 1008.82 1008.97 1008.97 1008.85 1008.68 1008.55 1008.53 1008.66 1008.98 1009.46 1010.10 1010.82 1011.57 1012.28 1012.94 1013.50 1013.98 1014.37 1014.70 1015.00 1015.28 1015.55 1015.82 1016.08 1016.34 1016.59 1016.84 1017.07 1017.30 1017.52 1017.72 1017.92 1018.09 1018.25 1018.37 1018.47
1010.39 1009.81 1009.12 1008.40 1007.77 1007.28 1006.98 1006.90 1007.02 1007.30 1007.67 1008.08 1008.45 1008.73 1008.89 1008.92 1008.84 1008.71 1008.58 1008.52 1008.58 1008.81 1009.21 1009.76 1010.45 1011.21 1011.98 1012.71 1013.37 1013.93 1014.38 1014.74 1015.02 1015.25 1015.45 1015.66 1015.87 1016.11 1016.38 1016.66 1016.95 1017.24 1017.52 1017.79 1018.03 1018.25 1018.44 1018.59 1018.71
1010.45 1009.92 1009.31 1008.71 1008.19 1007.78 1007.51 1007.40 1007.43 1007.60 1007.85 1008.16 1008.46 1008.73 1008.92 1009.02 1009.02 1008.94 1008.84 1008.76 1008.76 1008.89 1009.19 1009.66 1010.29 1011.04 1011.84 1012.63 1013.36 1013.98 1014.47 1014.82 1015.07 1015.23 1015.35 1015.48 1015.64 1015.85 1016.12 1016.44 1016.79 1017.15 1017.50 1017.82 1018.11 1018.37 1018.59 1018.77 1018.91
1010.43 1009.96 1009.49 1009.04 1008.66 1008.36 1008.14 1008.00 1007.94 1007.98 1008.10 1008.29 1008.54 1008.80 1009.04 1009.22 1009.32 1009.33 1009.28 1009.21 1009.17 1009.23 1009.43 1009.81 1010.37 1011.08 1011.88 1012.70 1013.47 1014.12 1014.62 1014.96 1015.15 1015.24 1015.28 1015.32 1015.43 1015.61 1015.88 1016.23 1016.63 1017.05 1017.45 1017.82 1018.15 1018.43 1018.67 1018.88 1019.05
1010.26 1009.91 1009.61 1009.37 1009.18 1009.01 1008.85 1008.69 1008.55 1008.45 1008.43 1008.50 1008.66 1008.91 1009.19 1009.47 1009.69 1009.81 1009.84 1009.81 1009.76 1009.76 1009.88 1010.17 1010.65 1011.30 1012.08 1012.89 1013.67 1014.33 1014.82 1015.12 1015.26 1015.27 1015.24 1015.21 1015.26 1015.42 1015.69 1016.06 1016.50 1016.95 1017.40 1017.80 1018.15 1018.44 1018.70 1018.92 1019.11
1009.93 1009.75 1009.69 1009.71 1009.75 1009.75 1009.68 1009.51 1009.28 1009.03 1008.84 1008.76 1008.83 1009.04 1009.35 1009.71 1010.05 1010.29 1010.43 1010.46 1010.42 1010.39 1010.45 1010.65 1011.06 1011.64 1012.36 1013.14 1013.90 1014.54 1015.02 1015.28 1015.37 1015.33 1015.23 1015.16 1015.16 1015.30 1015.57 1015.96 1016.42 1016.90 1017.37 1017.78 1018.13 1018.42 1018.67 1018.90 1019.12
1009.48 1009.54 1009.78 1010.11 1010.42 1010.62 1010.64 1010.47 1010.14 1009.73 1009.35 1009.09 1009.02 1009.16 1009.48 1009.90 1010.34 1010.71 1010.95 1011.06 1011.07 1011.03 1011.04 1011.18 1011.49 1011.99 1012.65 1013.38 1014.09 1014.70 1015.15 1015.39 1015.45 1015.38 1015.25 1015.15 1015.14 1015.27 1015.55 1015.95 1016.42 1016.91 1017.37 1017.78 1018.11 1018.38 1018.62 1018.85 1019.09
1009.00 1009.36 1009.94 1010.60 1011.20 1011.61 1011.73 1011.55 1011.11 1010.52 1009.93 1009.47 1009.23 1009.27 1009.54 1009.99 1010.51 1010.99 1011.35 1011.55 1011.61 1011.58 1011.56 1011.63 1011.87 1012.28 1012.85 1013.50 1014.17 1014.74 1015.17 1015.40 1015.46 1015.39 1015.27 1015.17 1015.18 1015.32 1015.61 1016.02 1016.50 1016.98 1017.43 1017.81 1018.12 1018.36 1018.58 1018.80 1019.06
1008.59 1009.28 1010.21 1011.21 1012.09 1012.69 1012.89 1012.69 1012.13 1011.36 1010.54 1009.86 1009.44 1009.34 1009.54 1009.99 1010.57 1011.13 1011.59 1011.87 1011.99 1011.99 1011.95 1011.96 1012.11 1012.43 1012.91 1013.48 1014.09 1014.63 1015.04 1015.28 1015.37 1015.33 1015.25 1015.20 1015.24 1015.42 1015.72 1016.15 1016.62 1017.10 1017.53 1017.88 1018.16 1018.37 1018.57 1018.78 1019.04
1008.32 1009.33 1010.59 1011.89 1013.01 1013.76 1014.02 1013.78 1013.10 1012.14 1011.11 1010.21 1009.60 1009.35 1009.48 1009.91 1010.51 1011.14 1011.67 1012.04 1012.21 1012.23 1012.17 1012.14 1012.21 1012.44 1012.82 1013.31 1013.86 1014.36 1014.77 1015.04 1015.17 1015.20 1015.18 1015.19 1015.29 1015.51 1015.85 1016.29 1016.77 1017.23 1017.64 1017.97 1018.22 1018.42 1018.59 1018.80 1019.06
1008.23 1009.51 1011.03 1012.55 1013.84 1014.68 1014.96 1014.66 1013.87 1012.74 1011.53 1010.44 1009.67 1009.30 1009.34 1009.74 1010.35 1011.03 1011.63 1012.05 1012.28 1012.32 1012.26 1012.18 1012.18 1012.32 1012.61 1013.03 1013.51 1013.99 1014.41 1014.71 1014.90 1015.00 1015.06 1015.15 1015.31 1015.58 1015.95 1016.41 1016.89 1017.35 1017.75 1018.07 1018.30 1018.48 1018.64 1018.83 1019.09
1008.29 1009.75 1011.43 1013.08 1014.43 1015.30 1015.56 1015.19 1014.29 1013.04 1011.70 1010.48 1009.60 1009.14 1009.13 1009.50 1010.13 1010.84 1011.48 1011.96 1012.22 1012.29 1012.23 1012.12 1012.07 1012.13 1012.35 1012.69 1013.12 1013.58 1014.00 1014.34 1014.58 1014.76 1014.90 1015.06 1015.29 1015.60 1016.01 1016.47 1016.96 1017.42 1017.82 1018.13 1018.36 1018.54 1018.70 1018.89 1019.13
1008.44 1009.97 1011.69 1013.33 1014.67 1015.48 1015.67 1015.23 1014.26 1012.95 1011.54 1010.28 1009.35 1008.86 1008.83 1009.20 1009.84 1010.58 1011.26 1011.78 1012.08 1012.17 1012.11 1011.99 1011.90 1011.92 1012.07 1012.37 1012.76 1013.19 1013.62 1013.98 1014.28 1014.51 1014.72 1014.94 1015.22 1015.57 1015.99 1016.47 1016.96 1017.43 1017.83 1018.15 1018.40 1018.58 1018.74 1018.92 1019.16
1008.61 1010.09 1011.72 1013.25 1014.46 1015.16 1015.26 1014.75 1013.75 1012.43 1011.04 1009.81 1008.91 1008.45 1008.44 1008.83 1009.49 1010.24 1010.95 1011.50 1011.83 1011.95 1011.91 1011.80 1011.70 1011.70 1011.82 1012.08 1012.45 1012.87 1013.30 1013.69 1014.02 1014.30 1014.55 1014.81 1015.12 1015.48 1015.92 1016.40 1016.89 1017.36 1017.77 1018.11 1018.37 1018.58 1018.75 1018.93 1019.14
1008.74 1010.07 1011.50 1012.82 1013.82 1014.36 1014.34 1013.78 1012.79 1011.53 1010.23 1009.09 1008.29 1007.91 1007.96 1008.38 1009.05 1009.82 1010.53 1011.10 1011.46 1011.61 1011.61 1011.53 1011.45 1011.46 1011.58 1011.84 1012.20 1012.62 1013.05 1013.45 1013.81 1014.12 1014.39 1014.68 1014.99 1015.36 1015.78 1016.25 1016.74 1017.21 1017.63 1017.99 1018.28 1018.51 1018.70 1018.88 1019.07
1008.80 1009.90 1011.06 1012.10 1012.86 1013.20 1013.06 1012.47 1011.51 1010.36 1009.19 1008.21 1007.54 1007.26 1007.38 1007.83 1008.50 1009.26 1009.97 1010.54 1010.91 1011.10 1011.15 1011.12 1011.09 1011.14 1011.30 1011.58 1011.95 1012.38 1012.83 1013.24 1013.62 1013.94 1014.23 1014.52 1014.84 1015.19 1015.60 1016.05 1016.53 1016.99 1017.42 1017.79 1018.10 1018.35 1018.55 1018.74 1018.92
Thickness
5825 5822 5819 5806 5784 5765 5760 5774 5789 5794 5799 5811 5817 5811 5802 5794 5785 5776 5799 5804 5799 5793 5789 5785 5783 5781 5779 5778 5776 5774 5773 5772 5770 5769 5768 5766 5765 5763 5762 5760 5759 5758 5757 5755 5754 5753 5752 5751 5749
5826 5822 5810 5792 5769 5751 5761 5785 5791 5800 5809 5815 5813 5809 5803 5797 5803 5798 5798 5799 5797 5792 5787 5785 5783 5780 5778 5776 5775 5773 5772 5770 5769 5767 5766 5765 5764 5762 5761 5759 5758 5756 5755 5754 5752 5751 5750 5749 5748
5826 5822 5798 5779 5766 5758 5770 5794 5802 5812 5818 5816 5806 5806 5801 5796 5802 5799 5799 5797 5793 5789 5785 5783 5781 5779 5777 5775 5773 5772 5770 5768 5767 5766 5765 5763 5762 5761 5759 5758 5756 5755 5754 5752 5751 5749 5748 5747 5746
5821 5807 5791 5772 5767 5784 5793 5804 5812 5810 5812 5814 5807 5795 5798 5808 5807 5802 5799 5795 5789 5785 5782 5781 5779 5777 5774 5773 5771 5770 5769 5767 5766 5764 5763 5762 5761 5759 5758 5756 5755 5753 5752 5751 5749 5748 5746 5745 5744
5816 5794 5775 5765 5776 5798 5812 5819 5820 5812 5808 5808 5806 5789 5786 5802 5808 5802 5796 5792 5787 5782 5779 5777 5776 5774 5772 5771 5770 5768 5767 5765 5764 5763 5762 5761 5759 5758 5756 5755 5753 5751 5750 5749 5747 5746 5745 5743 5743
5799 5785 5764 5759 5780 5804 5817 5826 5822 5812 5806 5807 5802 5788 5783 5797 5797 5794 5792 5787 5784 5781 5778 5775 5773 5771 5770 5769 5768 5766 5765 5763 5762 5761 5760 5759 5757 5756 5755 5753 5752 5750 5748 5747 5746 5744 5743 5742 5741
5791 5778 5767 5774 5782 5796 5816 5827 5820 5810 5804 5805 5807 5786 5783 5789 5794 5792 5788 5784 5780 5778 5775 5772 5770 5769 5768 5767 5766 5764 5763 5761 5760 5759 5758 5757 5755 5754 5753 5751 5750 5748 5746 5745 5744 5743 5741 5740 5740
5804 5782 5773 5775 5783 5794 5820 5827 5825 5816 5808 5814 5811 5788 5780 5790 5793 5789 5784 5780 5776 5773 5771 5769 5767 5767 5765 5764 5763 5762 5761 5760 5758 5757 5756 5755 5753 5752 5751 5749 5748 5746 5745 5743 5742 5741 5739 5739 5739
5811 5775 5763 5777 5787 5799 5821 5818 5819 5823 5814 5810 5809 5803 5800 5796 5790 5782 5774 5769 5768 5767 5766 5765 5764 5763 5763 5761 5760 5760 5759 5757 5756 5755 5754 5752 5751 5750 5748 5747 5746 5744 5743 5741 5740 5739 5737 5737 5737
5798 5769 5779 5799 5806 5808 5818 5817 5814 5808 5799 5796 5796 5800 5799 5792 5784 5776 5769 5763 5761 5760 5761 5761 5760 5760 5759 5759 5757 5757 5756 5755 5754 5753 5751 5750 5749 5747 5746 5745 5743 5742 5741 5739 5738 5736 5736 5735 5735
5799 5787 5801 5812 5818 5818 5815 5815 5818 5803 5789 5793 5791 5790 5790 5784 5777 5772 5768 5764 5760 5759 5758 5757 5757 5757 5757 5757 5755 5754 5754 5753 5752 5751 5749 5748 5746 5745 5744 5743 5741 5740 5738 5737 5736 5734 5734 5733 5733
5803 5807 5814 5816 5823 5820 5817 5815 5809 5805 5801 5807 5803 5796 5788 5779 5771 5768 5766 5762 5758 5756 5756 5755 5756 5756 5756 5755 5754 5753 5752 5751 5750 5749 5748 5746 5744 5743 5741 5740 5739 5738 5736 5735 5733 5732 5731 5731 5731
5802 5806 5816 5820 5822 5823 5819 5811 5806 5802 5808 5806 5799 5791 5783 5776 5770 5766 5763 5761 5757 5754 5754 5754 5754 5754 5754 5753 5753 5752 5751 5750 5749 5748 5747 5746 5744 5742 5740 5738 5737 5736 5734 5733 5731 5731 5730 5729 5729
5806 5809 5812 5816 5818 5820 5811 5805 5800 5796 5803 5796 5790 5782 5778 5773 5768 5762 5757 5754 5754 5753 5753 5752 5752 5752 5752 5752 5751 5751 5749 5748 5747 5746 5746 5745 5743 5741 5739 5737 5735 5734 5733 5732 5730 5729 5728 5728 5728
5811 5800 5801 5808 5813 5815 5808 5790 5792 5798 5797 5788 5783 5779 5774 5770 5767 5761 5757 5754 5753 5751 5751 5750 5750 5749 5749 5749 5749 5749 5748 5747 5746 5745 5745 5744 5742 5740 5738 5736 5734 5733 5732 5731 5729 5728 5727 5727 5726
5798 5786 5777 5798 5808 5811 5796 5773 5790 5796 5790 5781 5778 5775 5769 5765 5762 5760 5756 5752 5750 5749 5748 5748 5749 5747 5746 5746 5747 5746 5745 5744 5744 5744 5743 5742 5741 5739 5737 5735 5734 5733 5731 5730 5728 5727 5725 5725 5724
5772 5764 5769 5787 5805 5804 5790 5775 5789 5793 5787 5777 5774 5770 5765 5759 5757 5756 5754 5751 5747 5746 5746 5744 5745 5744 5744 5744 5744 5742 5742 5742 5742 5742 5741 5741 5740 5738 5737 5734 5733 5732 5731 5729 5728 5725 5724 5723 5722
5755 5761 5769 5777 5797 5796 5783 5776 5784 5786 5782 5774 5769 5763 5759 5755 5753 5754 5752 5749 5745 5744 5743 5742 5741 5741 5741 5741 5740 5738 5738 5738 5739 5739 5739 5739 5738 5737 5736 5733 5732 5731 5729 5727 5726 5724 5723 5723 5722
5774 5770 5770 5782 5800 5790 5777 5772 5775 5779 5776 5769 5762 5758 5755 5753 5752 5751 5747 5744 5740 5739 5738 5737 5736 5737 5737 5736 5735 5733 5733 5734 5735 5737 5737 5738 5737 5736 5735 5733 5731 5731 5728 5727 5726 5724 5722 5721 5721
5777 5770 5772 5784 5796 5786 5771 5767 5773 5774 5773 5771 5765 5758 5754 5750 5747 5745 5742 5740 5738 5736 5735 5735 5734 5734 5735 5736 5736 5735 5734 5733 5734 5734 5735 5736 5736 5735 5734 5732 5731 5730 5727 5725 5724 5723 5720 5719 5720
5778 5775 5777 5777 5782 5778 5766 5751 5758 5768 5770 5770 5768 5763 5757 5751 5746 5742 5739 5738 5737 5735 5734 5735 5732 5733 5734 5734 5734 5733 5731 5730 5729 5730 5731 5733 5734 5734 5733 5732 5730 5729 5727 5724 5723 5722 5719 5716 5717
5771 5792 5791 5783 5764 5746 5754 5727 5744 5755 5758 5762 5761 5759 5756 5752 5747 5742 5738 5736 5736 5736 5736 5735 5734 5734 5733 5733 5732 5731 5729 5727 5728 5730 5730 5732 5733 5732 5732 5731 5730 5728 5726 5724 5723 5722 5720 5717 5714
5783 5796 5787 5777 5759 5741 5741 5728 5733 5749 5749 5753 5757 5758 5756 5753 5748 5743 5740 5738 5737 5736 5735 5735 5734 5734 5733 5733 5732 5732 5730 5730 5729 5729 5729 5729 5730 5731 5730 5730 5729 5727 5725 5724 5723 5721 5719 5717 5714
5797 5784 5770 5755 5741 5722 5730 5725 5727 5740 5750 5754 5758 5758 5756 5753 5749 5745 5742 5739 5737 5737 5736 5735 5733 5732 5733 5733 5733 5732 5731 5730 5728 5727 5726 5726 5727 5728 5729 5729 5728 5726 5725 5723 5722 5720 5718 5716 5714
5787 5756 5728 5722 5710 5711 5728 5725 5730 5755 5762 5762 5761 5759 5758 5755 5749 5744 5742 5739 5737 5736 5735 5734 5732 5731 5732 5733 5733 5734 5733 5732 5729 5728 5726 5725 5725 5725 5727 5728 5727 5725 5724 5723 5721 5719 5717 5715 5713
5774 5757 5724 5710 5705 5710 5723 5721 5740 5766 5771 5770 5768 5764 5759 5755 5751 5748 5746 5744 5741 5739 5737 5735 5732 5731 5733 5733 5734 5735 5734 5733 5731 5730 5729 5727 5727 5727 5728 5727 5726 5724 5723 5721 5719 5717 5715 5713 5711
5769 5756 5755 5730 5719 5706 5712 5727 5747 5766 5767 5767 5765 5761 5758 5756 5754 5752 5750 5747 5745 5742 5740 5739 5735 5733 5733 5734 5734 5734 5734 5734 5732 5731 5730 5729 5728 5728 5727 5726 5724 5722 5721 5719 5717 5715 5713 5711 5709
5779 5766 5742 5724 5705 5699 5709 5719 5728 5750 5755 5760 5760 5758 5759 5757 5756 5754 5753 5751 5749 5747 5744 5741 5739 5737 5736 5735 5735 5735 5734 5734 5733 5731 5729 5729 5728 5728 5725 5724 5722 5720 5718 5717 5714 5712 5711 5708 5706
5765 5757 5744 5725 5720 5702 5695 5715 5756 5757 5760 5759 5760 5762 5760 5759 5759 5757 5756 5754 5752 5749 5746 5743 5740 5738 5737 5737 5736 5735 5734 5733 5732 5731 5730 5729 5728 5727 5725 5722 5720 5718 5716 5714 5712 5709 5708 5705 5703
5767 5757 5742 5723 5717 5715 5706 5720 5770 5767 5766 5764 5764 5766 5764 5763 5763 5762 5760 5756 5752 5750 5747 5745 5742 5740 5740 5739 5737 5735 5734 5732 5731 5730 5729 5729 5728 5726 5724 5722 5719 5716 5714 5712 5709 5707 5705 5702 5700